Location: *
(45.2539°N, 19.8629°E)
Time: 14:11:24
(UTC+00:00)

Daily predictions for brighter satellites

Satellite Brightness Start Highest point End
(mag) Time Altitude Azimuth Time Altitude Azimuth Time Altitude Azimuth
H-2A R/B 2.3 17:40:31 10° SE 17:45:33 52° ENE 17:50:28 10° N
Cosmos 1340 Rocket 4.5 17:44:35 10° SE 17:47:05 16° E 17:49:33 10° NE
CZ-2C R/B 3.2 17:43:14 10° SE 17:47:53 47° ENE 17:52:27 10° N
Cosmos 1703 4.2 17:46:57 10° NNE 17:50:29 30° ENE 17:54:00 10° SE
STARLINK-67 4.0 17:52:11 10° NW 17:54:24 25° NNE 17:56:38 10° E
Cosmos 2251 Rocket 3.8 17:49:16 10° SSW 17:54:38 77° WNW 18:00:03 10° NNE
ATLAS 2AS CENTAUR R/B 3.1 17:49:18 10° NW 17:56:52 58° NE 18:03:47 10° ESE
USA 234 4.5 17:53:01 10° E 17:57:17 18° ESE 18:01:32 10° SSE
SL-08 RB Rocket 4.3 17:54:36 10° SE 17:58:50 39° ENE 18:03:07 10° N
Cosmos 1437 2.5 17:56:46 10° N 17:59:48 64° E 18:02:46 10° SSE
Cosmos 1908 3.9 17:57:37 10° SSE 18:01:05 33° E 18:04:35 10° NNE
CZ-4 R/B 4.1 17:58:26 10° SW 18:01:23 21° W 18:04:21 10° NW
STARLINK-52 4.4 18:00:32 10° S 18:02:55 19° SE 18:04:54 12° E
Cosmos 2263 4.3 17:58:01 10° NNW 18:03:40 83° WSW 18:09:15 10° SSE
Cosmos 1943 3.2 17:58:07 10° SSW 18:03:47 85° ESE 18:09:30 10° NNE
SeaSat 1 3.1 18:00:56 10° NNE 18:05:48 60° WNW 18:10:38 10° SW
Ariane Rocket 3.0 18:01:46 10° SSE 18:06:51 89° WSW 18:11:56 10° NNW
MONITOR-E 3.7 18:05:43 10° SSE 18:08:19 60° ENE 18:10:56 10° N
IRS-1A Rocket 4.4 18:04:40 10° SSE 18:10:24 89° W 18:16:17 10° NNW
Cosmos 1140 Rocket 4.2 18:06:09 10° SSE 18:10:40 31° E 18:15:10 10° NE
Cosmos 1953 2.8 18:08:01 10° SSW 18:11:57 63° W 18:15:56 10° N
STARLINK-1228 4.2 18:10:07 10° NW 18:12:39 27° NNE 18:14:40 13° ENE
IRIDIUM 104 4.3 18:07:39 10° N 18:12:54 88° ENE 18:18:07 10° S
Cosmos 1656 Rocket 3.7 18:07:27 10° NNW 18:13:08 80° ENE 18:18:43 10° SSE
Cosmos 2184 Rocket 4.0 18:09:19 10° N 18:15:39 81° E 18:21:52 10° S
Meteor 1-11 4.5 18:11:04 10° N 18:16:42 51° ENE 18:22:12 10° SSE
Cosmos 1726 2.3 18:13:00 10° SSW 18:16:44 76° W 18:20:29 10° N
Cosmos 1190 Rocket 4.4 18:11:49 10° S 18:16:45 41° ESE 18:21:41 10° NE
COSMOS 2455 3.6 18:11:59 10° NNW 18:17:36 38° NE 18:22:01 16° ESE
Meteor 2-10 4.3 18:13:21 10° SSW 18:18:49 84° W 18:24:30 10° N
MetOp-A 4.4 18:14:36 10° SE 18:19:43 49° ENE 18:24:53 10° N
CZ-2C R/B 3.3 18:16:11 10° NNE 18:20:48 31° E 18:25:23 10° SSE
Cosmos 2058 Rocket 3.6 18:16:39 10° SSE 18:20:49 38° E 18:25:00 10° NNE
Cosmos 614 Rocket 3.9 18:17:53 10° S 18:23:03 66° ESE 18:28:14 10° NNE
ARGOS 3.2 18:20:30 10° SSE 18:25:54 85° WSW 18:31:19 10° NNW
Cosmos 1726 Rocket 3.5 18:24:29 10° S 18:28:52 72° E 18:33:18 10° NNE
FREGAT/IRIS 3.3 18:26:47 10° S 18:29:25 46° W 18:32:05 10° NNW
Resurs 01 Rocket 2.3 18:30:56 20° SE 18:33:25 37° ENE 18:37:28 10° N
SL-24 R/B 3.8 18:29:29 10° NNE 18:33:30 59° E 18:37:11 10° S
Meteor 2-17 Rocket 4.4 18:28:35 10° N 18:34:46 74° E 18:40:54 10° SSE
Nadezhda 1 Rocket 4.0 18:29:03 10° S 18:35:26 77° E 18:41:47 10° N
Cosmos 1825 Rocket 4.1 18:32:19 10° NNW 18:36:40 61° W 18:40:56 10° S
ERBS 4.5 18:35:14 10° NNW 18:37:37 17° NNE 18:39:24 12° ENE
USA 186 3.0 18:34:38 10° S 18:37:50 42° W 18:40:55 10° NNW
Cosmos 2154 Rocket 4.0 18:31:53 10° N 18:38:16 78° E 18:44:36 10° SSE
APEX 4.2 18:32:45 10° NNW 18:39:19 84° ENE 18:43:26 18° SSE
Cosmos 921 Rocket 3.2 18:38:56 10° N 18:43:01 50° ENE 18:44:56 28° SE
SL-24 R/B - RUBIN 2 4.2 18:38:44 10° SSW 18:44:16 77° ESE 18:50:33 10° NE
Cosmos 407 Rocket 3.4 18:39:13 10° SSW 18:44:22 83° ESE 18:49:31 10° NNE
Cosmos 676 Rocket 4.3 18:40:30 10° S 18:45:29 44° ESE 18:50:27 10° NNE
STARLINK-1233 3.9 18:43:50 10° NW 18:46:48 37° NNE 18:47:47 28° ENE
STARLINK-1234 3.5 18:43:57 10° NW 18:46:55 44° NNE 18:47:45 34° ENE
STARLINK-1209 3.4 18:44:18 10° NW 18:47:13 46° NNE 18:47:58 36° ENE
STARLINK-1212 3.9 18:44:17 10° NW 18:47:14 37° NNE 18:48:12 29° ENE
Cosmos 2228 3.6 18:43:25 10° SSW 18:47:39 60° W 18:51:58 10° N
STARLINK-1105 3.9 18:44:44 10° NW 18:47:42 37° NNE 18:48:40 29° ENE
STARLINK-1206 3.9 18:45:13 10° NW 18:48:09 37° NNE 18:49:04 29° ENE
STARLINK-1247 3.9 18:45:39 10° NW 18:48:37 37° NNE 18:49:30 30° ENE
SPOT 3 Rocket 3.5 18:43:53 11° SSE 18:48:56 89° WSW 18:54:10 10° NNW
STARLINK-1227 3.9 18:46:04 10° NW 18:49:02 38° NNE 18:49:56 30° ENE
STARLINK-1218 3.8 18:46:34 10° NW 18:49:31 37° NNE 18:50:22 30° ENE
STARLINK-1226 3.8 18:47:00 10° NW 18:49:58 38° NNE 18:50:49 31° ENE
STARLINK-1254 3.8 18:47:26 10° NW 18:50:25 38° NNE 18:51:15 31° ENE
STARLINK-1215 3.8 18:47:54 10° NW 18:50:52 38° NNE 18:51:40 32° ENE
STARLINK-1231 3.8 18:48:21 10° NW 18:51:20 38° NNE 18:52:06 32° ENE
STARLINK-1232 3.8 18:49:16 10° NW 18:52:14 39° NNE 18:52:58 33° ENE
STARLINK-1217 3.8 18:49:42 10° NW 18:52:41 39° NNE 18:53:24 33° ENE
Aureole 1 Rocket 4.2 18:45:16 10° SSW 18:52:54 84° WNW 18:58:53 10° NNE
STARLINK-1208 3.8 18:50:07 10° NW 18:53:07 40° NNE 18:53:51 33° ENE
Cosmos 1461 3.0 18:48:47 10° NW 18:53:21 83° NE 18:55:35 31° SE
STARLINK-1229 3.7 18:50:36 10° NW 18:53:35 40° NNE 18:54:16 34° ENE
STARLINK-1271 3.7 18:51:02 10° NW 18:54:02 40° NNE 18:54:42 34° ENE
STARLINK-1270 3.7 18:51:31 10° NW 18:54:30 40° NNE 18:55:08 35° ENE
STARLINK-1154 3.7 18:51:57 10° NW 18:54:57 40° NNE 18:55:34 35° ENE
SJ-6B 4.0 18:51:43 10° S 18:55:39 44° W 18:59:38 10° NNW
STARLINK-1197 3.6 18:52:51 10° NW 18:55:51 41° NNE 18:56:26 36° NE
STARLINK-1189 3.6 18:53:18 10° NW 18:56:18 41° NNE 18:56:52 37° NE
STARLINK-1198 3.6 18:53:45 10° NW 18:56:45 41° NNE 18:57:18 37° NE
STARLINK-1188 3.6 18:54:12 10° NW 18:57:12 42° NNE 18:57:44 37° NE
Cosmos 1892 4.5 18:54:40 10° NNE 18:57:00 18° ENE 18:57:00 18° ENE
STARLINK-1235 3.3 18:54:48 10° NW 18:57:54 51° NNE 18:58:22 45° ENE
STARLINK-29 2.8 18:55:02 10° SW 18:58:13 73° SE 18:58:47 55° E
STARLINK-1187 3.4 18:55:16 10° NW 18:58:20 47° NNE 18:58:50 42° ENE
Cosmos 1953 Rocket 4.3 18:53:58 10° NNW 18:58:21 54° W 19:02:42 10° S
STARLINK-1199 3.6 18:56:08 10° NW 18:59:10 43° NNE 18:59:39 39° NE
STARLINK-1191 3.5 18:56:36 10° NW 18:59:38 43° NNE 19:00:06 40° NE
ATLAS 5 CENTAUR R/B 1.4 18:55:43 10° SW 18:59:50 90° NW 19:04:30 10° NE
STARLINK-1210 3.5 18:57:02 10° NW 19:00:04 44° NNE 19:00:31 40° NE
STARLINK-60 3.6 18:57:04 10° WSW 19:00:18 55° NNW 19:02:13 22° NE
STARLINK-1221 3.5 18:57:30 10° NW 19:00:32 44° NNE 19:00:58 41° NE
STARLINK-1219 3.5 18:57:55 10° NW 19:00:59 44° NNE 19:01:23 41° NE
STARLINK-1222 3.5 18:58:23 10° NW 19:01:26 45° NNE 19:01:49 42° NE
STARLINK-1211 3.5 18:58:51 10° NW 19:01:53 45° NNE 19:02:15 42° NE
STARLINK-1214 3.5 18:59:17 10° NW 19:02:20 45° NNE 19:02:41 43° NE
STARLINK-1245 3.4 18:59:47 10° NW 19:02:48 45° NNE 19:03:07 43° NE
STARLINK-1238 3.4 19:00:11 10° NW 19:03:14 46° NNE 19:03:34 44° NE
Terra 3.8 19:03:35 14° ENE 19:03:51 14° ENE 19:06:09 10° NNE
STARLINK-1205 3.4 19:01:08 10° NW 19:04:10 46° NNE 19:04:25 45° NE
STARLINK-1204 3.4 19:01:34 10° NW 19:04:36 47° NNE 19:04:50 45° NE
Cosmos 1954 Rocket 3.9 19:03:20 10° S 19:08:32 66° ESE 19:13:43 10° NNE
Abrixas rocket 2.1 19:08:45 10° WNW 19:11:30 66° NNW 19:11:30 66° NNW
SPOT 1/Viking Rocket 4.3 19:12:00 32° E 19:12:59 34° ENE 19:17:40 10° N
Cosmos 2058 3.6 19:10:59 10° N 19:14:34 36° ENE 19:14:34 36° ENE
NOSS 3-4 (A) 4.2 19:08:37 10° NW 19:15:35 63° WSW 19:20:34 23° SSE
NOSS 3-4 (C) 4.2 19:08:43 10° NW 19:15:41 63° WSW 19:20:39 23° SSE
RESURS DK-1 4.3 19:14:30 10° N 19:17:15 17° NE 19:17:24 17° NE
Cosmos 1300 2.5 19:17:23 48° S 19:18:23 88° E 19:22:13 10° N
In-Cosmos 22 Rocket 4.4 19:13:03 10° N 19:18:49 56° ENE 19:20:35 40° SE
FALCON 9 DEB 3.1 19:16:42 10° WSW 19:20:11 83° NNW 19:20:15 82° N
SL-4 R/B 3.0 19:18:10 10° W 19:21:21 36° NNW 19:22:39 26° NNE
Cosmos 1076 Rocket 3.8 19:18:12 10° N 19:22:14 47° ENE 19:22:14 47° ENE
MOS 1 Rocket 3.9 19:17:36 10° N 19:22:59 71° WNW 19:28:23 10° SSW
Cosmos 1340 Rocket 4.0 19:19:18 10° SSW 19:23:10 42° WNW 19:27:02 10° N
STARLINK-1246 4.3 19:20:10 10° NW 19:24:09 43° NNE 19:24:53 39° NE
STARLINK-1203 4.3 19:20:47 10° NW 19:24:51 46° NNE 19:25:34 42° NE
H-2A R/B 4.3 19:21:18 10° SW 19:25:14 22° W 19:29:08 10° NW
STARLINK-1201 3.5 19:22:39 10° NW 19:25:27 55° NNW 19:25:27 55° NNW
STARLINK-1224 4.2 19:25:07 10° NW 19:29:08 45° NNE 19:29:39 43° NE
Cosmos 1763 Rocket 4.0 19:25:06 10° N 19:30:00 40° ENE 19:30:27 39° ENE
STARLINK-1225 4.1 19:30:07 10° NW 19:34:09 48° NNE 19:34:27 47° NE
MetOp-B 4.0 19:33:00 46° SSE 19:34:42 88° ENE 19:40:05 10° NNW
COSMOS 2406 4.3 19:39:02 29° ENE 19:39:02 29° ENE 19:42:17 10° NE
SAR-Lupe-2 3.9 19:33:42 10° N 19:36:47 61° N 19:36:47 61° N
STARLINK-1230 4.1 19:35:05 10° NW 19:39:09 51° NNE 19:39:14 50° NNE
Cosmos 1174 4.3 19:35:59 10° NNW 19:40:05 56° NE 19:40:09 56° ENE
USA 234 3.1 19:34:33 10° NE 19:41:05 68° SE 19:47:35 10° SW
STARLINK-1243 4.1 19:40:03 10° NW 19:44:00 53° NNE 19:44:00 53° NNE
Iridium 4 Rocket 3.2 19:41:23 10° N 19:44:57 61° NNE 19:44:57 61° NNE
ATLAS 2AS CENTAUR R/B 3.9 19:40:51 10° NW 19:47:32 37° WSW 19:51:22 21° SSW
STARLINK-1236 4.1 19:45:02 10° NW 19:48:47 55° N 19:48:47 55° N
USA 32 4.4 19:46:04 10° N 19:50:43 48° ENE 19:50:43 48° ENE
CZ-4C R/B 4.0 19:47:37 10° NNW 19:53:45 33° NE 19:56:49 25° ENE
Meteor 2-1 Rocket 4.2 19:56:24 56° S 19:57:43 86° E 20:03:42 10° NNE
Spot 2 Rocket 3.7 19:56:54 57° SSW 19:57:44 67° WSW 20:02:50 10° NNW
Cosmos 1850 Rocket 4.1 19:59:22 61° NE 19:59:22 61° NE 20:03:45 10° NNE
Landsat 7 3.7 19:58:58 84° W 19:58:58 84° W 20:03:41 10° NNW
STARLINK-1269 4.3 19:54:58 10° NW 19:58:20 52° NNW 19:58:20 52° NNW
CZ-2C R/B 4.0 19:56:25 10° N 20:01:06 36° WNW 20:05:48 10° SW
COSMOS 2455 3.6 19:57:57 10° NW 20:03:37 44° WSW 20:05:11 36° SSW
Cosmos 1697 Rocket 3.4 19:58:42 10° NNW 20:04:03 40° NE 20:04:03 40° NE
STARLINK-1200 4.5 19:59:56 10° NW 20:03:07 49° NW 20:03:07 49° NW
CARTOSAT-1 4.4 20:06:16 43° NNE 20:06:16 43° NNE 20:09:21 10° N
IGS 5A 4.1 20:06:53 53° NW 20:06:53 53° NW 20:10:13 10° NNW
Cosmos 841 Rocket 4.1 20:02:13 10° N 20:06:47 45° NE 20:06:47 45° NE
Resurs 01 Rocket 3.6 20:08:29 19° WSW 20:10:00 23° W 20:13:32 10° NW
Cosmos 2218 Rocket 4.3 20:04:15 10° NNW 20:10:22 61° W 20:12:18 43° SSW
ATLAS CENTAUR R/B 3.4 20:14:54 10° NNW 20:16:45 20° N 20:16:45 20° N
Cosmos 468 Rocket 4.2 20:13:10 10° NNW 20:18:01 65° W 20:18:01 65° W
SL-16 R/B 4.4 20:18:32 10° N 20:21:16 13° NE 20:22:22 13° NE
Cosmos 1570 Rocket 4.3 20:17:15 10° NNW 20:21:55 65° N 20:21:55 65° N
ERS-1 Rocket 3.3 20:27:20 63° NW 20:27:20 63° NW 20:31:44 10° NNW
Cosmos 2322 Rocket 4.4 20:27:09 10° N 20:29:43 13° NE 20:30:45 12° NE
Cosmos 1656 3.8 20:25:45 10° NNW 20:30:56 72° WNW 20:30:56 72° WNW
SPOT 5 3.9 20:34:13 39° NNW 20:34:13 39° NNW 20:37:00 10° NNW
Cosmos 1980 Rocket 3.2 20:28:02 10° NNW 20:32:34 36° NE 20:32:34 36° NE
Terra 2.8 20:42:27 44° NNW 20:42:27 44° NNW 20:45:42 10° NNW
ATLAS 5 CENTAUR R/B 4.3 20:42:06 10° WNW 20:45:15 19° NNW 20:48:42 10° NNE
Nadezhda 3 Rocket 4.1 20:50:21 75° NW 20:50:21 75° NW 20:56:19 10° N
Cosmos 2278 4.4 20:54:44 10° NNW 20:58:59 50° N 20:58:59 50° N
Cosmos 2082 Rocket 3.8 21:03:59 25° NE 21:03:59 25° NE 21:06:18 10° NNE
Cosmos 1833 Rocket 3.7 21:13:44 40° N 21:13:44 40° N 21:17:22 10° NNE
BREEZE M DEB (TANK) 4.4 21:14:35 10° W 21:19:39 70° N 21:39:38 10° E
COSMOS 2406 4.4 21:21:00 37° WNW 21:21:22 37° NW 21:26:41 10° NNE
USA 234 4.0 21:17:43 10° NE 21:23:57 49° NNW 21:30:11 10° W
CZ-4C R/B 3.1 21:35:49 10° NW 21:42:00 68° NW 21:42:00 68° NW
Cosmos 1697 Rocket 4.4 21:42:52 10° NW 21:45:47 26° WNW 21:45:47 26° WNW
Mayak 1.6 21:46:50 10° N 21:47:46 15° NNW 21:47:46 15° NNW
SL-16 R/B 3.6 22:00:59 10° NNW 22:04:13 34° N 22:04:13 34° N
Cosmos 2360 Rocket 3.9 22:05:01 10° N 22:08:30 27° NNE 22:08:30 27° NNE
Cosmos 2322 Rocket 3.7 22:09:26 10° NNW 22:12:34 32° N 22:12:34 32° N
Cosmos 1980 Rocket 4.1 22:12:07 10° NW 22:14:20 22° NW 22:14:20 22° NW
Cosmos 2333 Rocket 4.3 22:20:57 10° N 22:24:54 19° NE 22:25:05 19° NE
Cosmos 2082 Rocket 4.1 22:45:47 24° NW 22:45:47 24° NW 22:49:48 10° N
SL-16 R/B 4.4 22:46:28 20° ENE 22:47:18 21° ENE 22:51:45 10° N
Cosmos 2219 Rocket 3.8 23:03:29 10° N 23:07:20 29° NNE 23:07:20 29° NNE
COSMOS 2428 4.1 23:24:09 10° NNW 23:28:04 35° NNE 23:28:04 35° NNE
SJ 16-02 4.1 23:37:59 15° NE 23:37:59 15° NE 23:38:53 10° NE
Resurs 1-4 Rocket 3.9 23:35:05 10° NNE 23:37:53 25° ENE 23:37:53 25° ENE
Cosmos 2360 Rocket 4.3 23:48:50 10° NW 23:50:15 18° NW 23:50:15 18° NW
